Total_Precipitation_Accumulation
0.00 0.00 0.00 0.00 0.00 0.00 0.00 0.00 0.00 0.00 0.00 0.00 0.00 0.00 0.00 0.00 0.01 0.00 0.01 0.00 0.01 0.04 0.09 0.55 0.54 0.37 0.47 0.35 0.20 0.20 0.60 0.42 0.46 0.60 0.45 0.78 0.53 0.32 0.45 0.14 0.02 0.05 0.03 0.00 0.01 0.01 0.02 0.00 0.00 0.00 0.00 0.00 0.00 0.00 0.00 0.01 0.00 0.00 0.00 0.00 0.00 0.01 0.01 0.02 0.04 0.04 0.02 0.05 0.03 0.03 0.02 0.01 0.02 0.01 0.02 0.02 0.01 0.02 0.10 0.08 0.12 0.05 0.11 0.08 0.08 0.07
0.00 0.00 0.00 0.00 0.00 0.00 0.00 0.00 0.00 0.00 0.00 0.00 0.00 0.00 0.00 0.00 0.01 0.00 0.01 0.00 0.01 0.04 0.13 0.02 0.11 0.13 0.17 0.16 0.16 0.21 0.23 0.71 0.53 0.81 0.51 0.31 0.42 0.43 0.15 0.28 0.45 0.08 0.02 0.02 0.02 0.01 0.00 0.00 0.00 0.00 0.00 0.00 0.00 0.00 0.00 0.00 0.00 0.00 0.00 0.00 0.00 0.00 0.01 0.01 0.01 0.02 0.02 0.01 0.01 0.01 0.01 0.01 0.03 0.03 0.02 0.04 0.03 0.03 0.09 0.03 0.02 0.03 0.04 0.04 0.04 0.07
0.00 0.00 0.00 0.00 0.00 0.00 0.00 0.00 0.00 0.00 0.00 0.00 0.00 0.00 0.00 0.00 0.00 0.00 0.00 0.00 0.02 0.00 0.08 0.01 0.05 0.08 0.09 0.08 0.07 0.20 0.13 0.28 0.42 0.47 0.46 0.51 0.75 0.91 0.54 0.35 0.22 0.24 0.06 0.02 0.02 0.01 0.01 0.01 0.00 0.00 0.00 0.00 0.00 0.00 0.00 0.00 0.01 0.00 0.00 0.00 0.01 0.01 0.01 0.00 0.01 0.01 0.02 0.01 0.01 0.01 0.02 0.01 0.03 0.02 0.03 0.07 0.08 0.04 0.07 0.03 0.02 0.06 0.03 0.04 0.07 0.07
0.00 0.00 0.00 0.00 0.00 0.00 0.00 0.00 0.00 0.00 0.00 0.00 0.00 0.00 0.01 0.00 0.01 0.11 0.00 0.00 0.01 0.02 0.03 0.02 0.03 0.04 0.04 0.04 0.08 0.15 0.10 0.12 0.28 0.72 1.40 0.86 1.38 0.74 0.49 0.37 0.25 0.05 0.26 0.22 0.02 0.01 0.01 0.00 0.00 0.00 0.00 0.00 0.00 0.00 0.00 0.00 0.00 0.01 0.00 0.00 0.00 0.01 0.01 0.01 0.01 0.00 0.00 0.01 0.01 0.01 0.02 0.03 0.04 0.09 0.04 0.07 0.05 0.09 0.07 0.07 0.04 0.06 0.08 0.13 0.16 0.11
0.00 0.00 0.00 0.00 0.00 0.00 0.00 0.00 0.00 0.00 0.00 0.00 0.00 0.00 0.00 0.00 0.00 0.00 0.02 0.00 0.00 0.01 0.05 0.21 0.03 0.04 0.02 0.03 0.05 0.19 1.03 0.75 0.77 0.31 0.89 1.11 0.78 0.50 0.42 0.31 0.21 0.35 0.11 0.06 0.01 0.01 0.00 0.00 0.00 0.00 0.00 0.00 0.00 0.00 0.00 0.00 0.00 0.00 0.00 0.00 0.00 0.00 0.00 0.00 0.00 0.01 0.01 0.02 0.03 0.04 0.04 0.04 0.05 0.03 0.04 0.05 0.05 0.05 0.05 0.03 0.04 0.04 0.08 0.11 0.04 0.04
0.00 0.00 0.00 0.00 0.00 0.00 0.00 0.00 0.00 0.00 0.00 0.00 0.00 0.00 0.00 0.00 0.00 0.00 0.00 0.01 0.02 0.00 0.02 0.00 0.07 0.05 0.04 0.04 0.07 0.13 0.49 0.20 0.09 0.19 0.33 0.42 0.45 0.23 0.20 0.30 0.30 0.31 0.19 0.12 0.11 0.04 0.03 0.01 0.00 0.00 0.00 0.00 0.00 0.00 0.00 0.00 0.00 0.00 0.00 0.00 0.00 0.00 0.01 0.01 0.00 0.01 0.02 0.03 0.06 0.06 0.08 0.11 0.07 0.10 0.05 0.05 0.01 0.04 0.05 0.03 0.03 0.06 0.03 0.06 0.05 0.01
0.00 0.00 0.00 0.00 0.00 0.00 0.00 0.00 0.00 0.00 0.00 0.00 0.00 0.00 0.00 0.00 0.00 0.00 0.00 0.00 0.01 0.02 0.02 0.01 0.09 0.11 0.01 0.05 0.04 0.04 0.04 0.08 0.20 0.19 0.19 0.26 0.24 0.22 0.14 0.18 0.19 0.15 0.16 0.10 0.11 0.08 0.10 0.04 0.01 0.00 0.00 0.00 0.00 0.00 0.00 0.00 0.00 0.00 0.00 0.00 0.00 0.00 0.00 0.00 0.00 0.01 0.01 0.02 0.02 0.05 0.05 0.02 0.02 0.02 0.01 0.01 0.02 0.01 0.00 0.02 0.02 0.02 0.01 0.01 0.00 0.00
0.00 0.00 0.00 0.00 0.00 0.00 0.00 0.00 0.00 0.00 0.00 0.00 0.00 0.00 0.00 0.00 0.00 0.00 0.00 0.00 0.01 0.00 0.00 0.02 0.00 0.07 0.07 0.07 0.13 0.03 0.05 0.16 0.27 0.22 0.07 0.19 0.19 0.43 0.21 0.17 0.16 0.17 0.09 0.11 0.07 0.07 0.03 0.04 0.03 0.01 0.00 0.00 0.00 0.00 0.00 0.00 0.00 0.00 0.00 0.00 0.00 0.00 0.00 0.00 0.00 0.01 0.01 0.01 0.01 0.01 0.02 0.01 0.01 0.01 0.01 0.00 0.00 0.00 0.01 0.02 0.02 0.03 0.00 0.01 0.01 0.01
0.00 0.00 0.00 0.00 0.00 0.00 0.00 0.00 0.00 0.00 0.00 0.00 0.00 0.00 0.00 0.00 0.00 0.00 0.00 0.00 0.00 0.01 0.11 0.01 0.00 0.03 0.01 0.11 0.04 0.03 0.10 0.36 0.46 0.18 0.09 0.23 0.19 0.21 0.16 0.29 0.74 0.59 0.66 0.45 0.18 0.09 0.04 0.06 0.04 0.04 0.01 0.01 0.00 0.00 0.00 0.00 0.00 0.00 0.00 0.00 0.00 0.00 0.00 0.00 0.00 0.00 0.00 0.00 0.01 0.01 0.01 0.01 0.00 0.01 0.00 0.01 0.01 0.01 0.00 0.01 0.01 0.01 0.02 0.01 0.01 0.00
0.00 0.00 0.00 0.00 0.00 0.00 0.00 0.00 0.00 0.00 0.00 0.00 0.00 0.00 0.00 0.00 0.00 0.00 0.00 0.01 0.01 0.01 0.01 0.00 0.01 0.04 0.06 0.04 0.05 0.06 0.42 0.34 0.31 0.28 0.15 0.20 0.25 0.24 0.17 0.31 0.44 0.26 0.45 0.39 0.14 0.13 0.08 0.07 0.04 0.06 0.03 0.02 0.01 0.00 0.00 0.00 0.00 0.00 0.00 0.00 0.00 0.00 0.00 0.00 0.01 0.00 0.00 0.00 0.00 0.00 0.00 0.00 0.01 0.00 0.00 0.00 0.00 0.00 0.00 0.01 0.02 0.01 0.02 0.00 0.02 0.03
0.00 0.00 0.00 0.00 0.00 0.00 0.00 0.00 0.00 0.00 0.00 0.00 0.00 0.00 0.00 0.00 0.00 0.00 0.00 0.00 0.01 0.00 0.00 0.00 0.01 0.00 0.14 0.02 0.03 0.03 0.17 0.09 0.12 0.25 0.25 0.40 0.19 0.13 0.08 0.16 0.21 0.25 0.25 0.21 0.12 0.12 0.06 0.06 0.12 0.05 0.08 0.01 0.00 0.01 0.00 0.00 0.00 0.00 0.00 0.00 0.00 0.00 0.00 0.00 0.00 0.00 0.00 0.00 0.00 0.00 0.00 0.00 0.01 0.01 0.00 0.00 0.00 0.00 0.01 0.01 0.01 0.01 0.02 0.00 0.00 0.00
0.00 0.00 0.00 0.00 0.00 0.00 0.00 0.00 0.00 0.00 0.00 0.00 0.00 0.00 0.00 0.00 0.00 0.00 0.00 0.00 0.00 0.00 0.00 0.00 0.00 0.02 0.06 0.04 0.10 0.05 0.04 0.08 0.06 0.16 0.03 0.30 0.34 0.30 0.07 0.10 0.12 0.25 0.33 0.55 0.61 0.55 0.25 0.09 0.13 0.02 0.05 0.02 0.01 0.00 0.00 0.00 0.00 0.00 0.00 0.00 0.00 0.00 0.00 0.00 0.00 0.00 0.00 0.00 0.00 0.00 0.00 0.00 0.00 0.00 0.00 0.00 0.00 0.00 0.00 0.00 0.00 0.00 0.01 0.02 0.01 0.00
0.00 0.00 0.00 0.00 0.00 0.00 0.00 0.00 0.00 0.00 0.00 0.00 0.00 0.00 0.00 0.00 0.00 0.00 0.00 0.00 0.00 0.00 0.00 0.00 0.00 0.01 0.02 0.02 0.01 0.01 0.03 0.01 0.00 0.05 0.03 0.01 0.11 0.24 0.15 0.13 0.09 0.19 0.39 0.45 0.40 0.26 0.12 0.08 0.07 0.11 0.02 0.01 0.02 0.01 0.00 0.00 0.00 0.00 0.00 0.00 0.00 0.00 0.00 0.00 0.00 0.00 0.00 0.00 0.00 0.00 0.00 0.00 0.00 0.00 0.00 0.00 0.00 0.00 0.00 0.00 0.00 0.00 0.01 0.00 0.01 0.00
0.00 0.00 0.00 0.00 0.00 0.00 0.00 0.00 0.00 0.00 0.00 0.00 0.00 0.00 0.00 0.00 0.00 0.00 0.00 0.00 0.00 0.00 0.00 0.00 0.00 0.01 0.03 0.04 0.05 0.01 0.03 0.01 0.00 0.01 0.00 0.01 0.01 0.08 0.05 0.03 0.24 0.15 0.33 0.52 0.21 0.10 0.21 0.15 0.08 0.24 0.34 0.13 0.03 0.02 0.01 0.01 0.00 0.00 0.00 0.00 0.00 0.00 0.00 0.00 0.00 0.00 0.00 0.00 0.00 0.00 0.00 0.00 0.00 0.00 0.00 0.00 0.00 0.00 0.00 0.00 0.00 0.00 0.00 0.01 0.01 0.00
0.01 0.00 0.00 0.00 0.00 0.00 0.00 0.00 0.00 0.00 0.00 0.00 0.00 0.00 0.00 0.00 0.00 0.00 0.00 0.00 0.00 0.00 0.00 0.00 0.00 0.00 0.04 0.28 0.07 0.00 0.01 0.00 0.00 0.00 0.00 0.01 0.00 0.00 0.08 0.02 0.10 0.54 0.48 0.43 0.30 0.27 0.31 0.22 0.24 0.41 0.33 0.13 0.04 0.02 0.03 0.00 0.01 0.01 0.02 0.02 0.00 0.00 0.00 0.00 0.00 0.00 0.00 0.00 0.00 0.00 0.00 0.00 0.00 0.00 0.00 0.00 0.00 0.00 0.00 0.00 0.00 0.00 0.00 0.00 0.00 0.00
0.00 0.00 0.00 0.00 0.00 0.00 0.00 0.00 0.00 0.00 0.00 0.00 0.00 0.00 0.00 0.00 0.00 0.00 0.00 0.00 0.00 0.00 0.01 0.00 0.06 0.08 0.14 0.01 0.02 0.03 0.00 0.03 0.01 0.00 0.00 0.01 0.02 0.06 0.10 0.05 0.10 0.30 0.57 0.36 0.25 0.21 0.16 0.16 0.21 0.17 0.20 0.08 0.04 0.04 0.01 0.03 0.01 0.01 0.01 0.04 0.00 0.01 0.00 0.00 0.00 0.00 0.00 0.00 0.00 0.00 0.00 0.00 0.00 0.00 0.00 0.00 0.00 0.00 0.00 0.00 0.00 0.00 0.00 0.00 0.00 0.01
0.00 0.01 0.00 0.00 0.00 0.00 0.00 0.00 0.00 0.00 0.00 0.00 0.00 0.00 0.00 0.00 0.00 0.00 0.00 0.00 0.00 0.00 0.00 0.00 0.02 0.01 0.00 0.02 0.15 0.18 0.05 0.00 0.06 0.01 0.01 0.01 0.00 0.00 0.01 0.07 0.04 0.15 0.16 0.31 0.23 0.30 0.17 0.13 0.33 0.38 0.14 0.06 0.07 0.01 0.02 0.02 0.03 0.03 0.05 0.06 0.03 0.04 0.02 0.00 0.00 0.00 0.00 0.00 0.00 0.00 0.00 0.00 0.00 0.00 0.00 0.00 0.00 0.00 0.00 0.00 0.00 0.02 0.01 0.00 0.00 0.00
0.00 0.00 0.00 0.00 0.00 0.00 0.00 0.00 0.00 0.00 0.00 0.00 0.00 0.00 0.00 0.00 0.00 0.00 0.00 0.00 0.00 0.00 0.00 0.00 0.04 0.01 0.07 0.17 0.51 0.29 0.04 0.10 0.23 0.00 0.00 0.00 0.01 0.01 0.01 0.01 0.02 0.03 0.18 0.39 0.45 0.22 0.17 0.19 0.27 0.34 0.17 0.10 0.08 0.15 0.17 0.05 0.09 0.16 0.06 0.17 0.04 0.03 0.06 0.06 0.01 0.00 0.00 0.00 0.00 0.00 0.00 0.00 0.00 0.00 0.00 0.00 0.00 0.00 0.00 0.00 0.00 0.01 0.00 0.00 0.00 0.00
0.00 0.00 0.00 0.00 0.00 0.00 0.00 0.00 0.00 0.00 0.00 0.00 0.00 0.00 0.00 0.00 0.00 0.00 0.00 0.00 0.00 0.00 0.02 0.00 0.01 0.03 0.02 0.03 0.02 0.02 0.06 0.03 0.02 0.01 0.01 0.01 0.00 0.00 0.00 0.00 0.02 0.02 0.06 0.15 0.26 0.47 0.22 0.21 0.30 0.42 0.58 1.03 1.29 0.70 0.11 0.22 0.32 0.13 0.10 0.15 0.07 0.06 0.05 0.03 0.02 0.00 0.00 0.00 0.00 0.00 0.00 0.00 0.00 0.00 0.00 0.00 0.00 0.00 0.00 0.00 0.00 0.00 0.00 0.00 0.00 0.00
0.00 0.00 0.01 0.00 0.00 0.00 0.00 0.00 0.00 0.00 0.00 0.00 0.00 0.00 0.00 0.00 0.00 0.00 0.00 0.01 0.00 0.00 0.00 0.30 0.27 0.21 0.06 0.15 0.25 0.06 0.08 0.02 0.03 0.02 0.00 0.00 0.00 0.00 0.00 0.00 0.01 0.04 0.10 0.12 0.15 0.30 0.33 0.59 0.62 0.47 0.44 1.09 0.88 0.35 0.38 0.45 0.16 0.20 0.35 0.16 0.20 0.74 0.59 0.14 0.05 0.01 0.00 0.00 0.00 0.00 0.00 0.00 0.00 0.00 0.00 0.00 0.00 0.00 0.00 0.00 0.00 0.00 0.00 0.00 0.00 0.00
0.00 0.01 0.01 0.00 0.00 0.00 0.00 0.00 0.00 0.00 0.00 0.00 0.00 0.00 0.00 0.00 0.00 0.00 0.00 0.00 0.01 0.02 0.00 0.04 0.10 0.16 0.26 0.61 0.37 0.02 0.37 0.01 0.01 0.00 0.00 0.00 0.00 0.00 0.00 0.00 0.00 0.02 0.03 0.07 0.06 0.06 0.17 0.42 0.46 0.66 0.90 1.25 1.06 0.65 0.55 0.22 0.25 0.51 0.49 0.11 0.26 1.08 0.80 0.50 0.34 0.16 0.05 0.00 0.00 0.00 0.00 0.00 0.00 0.00 0.00 0.00 0.00 0.00 0.00 0.00 0.00 0.00 0.00 0.00 0.00 0.00
0.00 0.00 0.00 0.01 0.00 0.00 0.00 0.00 0.00 0.00 0.00 0.00 0.00 0.00 0.00 0.00 0.00 0.00 0.00 0.00 0.00 0.00 0.00 0.02 0.07 0.04 0.10 0.08 0.17 0.25 0.05 0.05 0.00 0.00 0.00 0.00 0.00 0.00 0.00 0.00 0.00 0.00 0.00 0.01 0.01 0.02 0.15 0.39 0.23 0.22 0.41 0.37 1.23 0.60 0.52 0.74 0.99 1.43 1.09 0.88 1.05 1.33 0.64 0.57 0.44 0.40 0.43 0.11 0.01 0.00 0.00 0.00 0.00 0.00 0.00 0.00 0.00 0.00 0.00 0.00 0.01 0.00 0.00 0.00 0.00 0.00
0.00 0.00 0.00 0.00 0.00 0.00 0.00 0.00 0.00 0.00 0.00 0.00 0.00 0.00 0.00 0.00 0.00 0.00 0.00 0.00 0.00 0.00 0.00 0.04 0.04 0.09 0.05 0.02 0.02 0.03 0.07 0.17 0.00 0.00 0.00 0.00 0.00 0.00 0.00 0.00 0.00 0.00 0.00 0.00 0.00 0.00 0.05 0.06 0.12 0.21 0.25 0.35 0.58 0.74 0.96 0.71 1.18 0.93 0.93 1.09 1.16 1.02 0.94 0.46 0.37 0.41 0.20 0.22 0.06 0.00 0.02 0.00 0.00 0.01 0.00 0.00 0.00 0.00 0.01 0.01 0.02 0.00 0.00 0.00 0.00 0.01
0.00 0.01 0.01 0.00 0.00 0.00 0.00 0.00 0.00 0.00 0.00 0.00 0.00 0.00 0.00 0.00 0.00 0.00 0.00 0.01 0.00 0.08 0.02 0.06 0.04 0.07 0.02 0.15 0.39 0.23 0.01 0.00 0.00 0.00 0.00 0.00 0.00 0.00 0.00 0.00 0.00 0.00 0.00 0.00 0.00 0.00 0.00 0.00 0.03 0.04 0.25 0.39 0.59 0.52 0.84 0.36 0.35 1.05 1.09 1.01 0.72 0.80 0.44 0.55 0.71 0.69 0.72 0.87 0.83 0.16 0.08 0.01 0.01 0.00 0.00 0.00 0.00 0.00 0.02 0.01 0.00 0.00 0.02 0.01 0.00 0.02
0.00 0.00 0.01 0.01 0.04 0.00 0.00 0.00 0.00 0.00 0.00 0.00 0.00 0.00 0.00 0.00 0.00 0.00 0.00 0.02 0.01 0.00 0.01 0.03 0.19 0.07 0.11 0.07 0.08 0.09 0.11 0.05 0.00 0.00 0.00 0.00 0.00 0.00 0.00 0.00 0.00 0.00 0.00 0.00 0.00 0.00 0.00 0.01 0.02 0.09 0.22 0.26 0.30 0.31 0.53 0.66 0.80 1.11 1.11 0.70 0.76 1.04 0.56 0.57 0.97 1.37 0.69 0.68 0.52 0.56 0.14 0.02 0.01 0.04 0.04 0.01 0.00 0.01 0.03 0.03 0.00 0.01 0.03 0.01 0.03 0.01
0.01 0.02 0.04 0.05 0.02 0.01 0.01 0.00 0.02 0.01 0.00 0.00 0.00 0.00 0.01 0.01 0.01 0.00 0.01 0.00 0.00 0.03 0.00 0.02 0.17 0.10 0.19 0.18 0.12 0.13 0.10 0.00 0.00 0.00 0.00 0.00 0.00 0.00 0.00 0.00 0.00 0.00 0.00 0.00 0.00 0.00 0.00 0.01 0.01 0.10 0.24 0.65 0.22 0.18 0.34 0.20 0.29 0.32 0.80 0.95 0.73 0.62 1.29 1.09 1.11 0.43 0.19 0.83 0.76 0.71 0.52 0.17 0.13 0.20 0.10 0.03 0.03 0.09 0.03 0.01 0.01 0.01 0.03 0.01 0.01 0.00
0.00 0.00 0.00 0.00 0.03 0.08 0.31 0.13 0.01 0.00 0.02 0.00 0.00 0.00 0.01 0.00 0.01 0.01 0.00 0.01 0.00 0.12 0.04 0.06 0.00 0.05 0.02 0.16 0.27 0.10 0.05 0.00 0.00 0.00 0.00 0.00 0.00 0.00 0.00 0.00 0.00 0.01 0.00 0.00 0.00 0.00 0.00 0.01 0.01 0.02 0.25 0.27 0.31 0.20 0.02 0.18 0.41 0.21 0.26 0.37 0.70 1.08 0.44 0.39 0.63 0.97 0.85 0.81 0.68 0.36 0.26 0.25 0.63 0.44 0.12 0.08 0.08 0.16 0.15 0.09 0.02 0.02 0.02 0.01 0.02 0.01
0.00 0.00 0.00 0.00 0.00 0.00 0.00 0.01 0.00 0.00 0.00 0.00 0.00 0.00 0.00 0.00 0.01 0.03 0.01 0.05 0.01 0.00 0.02 0.01 0.06 0.07 0.05 0.03 0.03 0.09 0.22 0.01 0.00 0.01 0.00 0.00 0.00 0.00 0.03 0.02 0.00 0.00 0.00 0.00 0.01 0.00 0.00 0.01 0.01 0.01 0.01 0.08 0.17 0.16 0.47 0.20 0.09 0.05 0.21 0.40 0.56 0.56 0.34 0.60 0.58 0.44 0.60 0.37 0.45 0.26 0.31 0.24 0.49 0.60 0.37 0.18 0.26 0.17 0.16 0.10 0.04 0.00 0.02 0.02 0.01 0.01
0.03 0.00 0.00 0.00 0.00 0.00 0.01 0.01 0.01 0.00 0.00 0.00 0.00 0.00 0.00 0.00 0.04 0.00 0.00 0.00 0.02 0.04 0.14 0.06 0.03 0.08 0.03 0.04 0.02 0.00 0.02 0.01 0.01 0.05 0.00 0.00 0.00 0.00 0.00 0.01 0.01 0.01 0.00 0.00 0.00 0.00 0.01 0.00 0.00 0.00 0.01 0.01 0.04 0.14 0.44 0.25 0.17 0.19 0.47 0.74 0.59 0.69 0.58 0.24 0.25 0.15 0.13 0.42 0.43 0.43 0.57 0.83 0.98 1.07 1.07 1.21 1.32 1.17 0.45 0.11 0.04 0.01 0.01 0.01 0.02 0.04
0.00 0.02 0.00 0.00 0.00 0.00 0.00 0.00 0.00 0.00 0.00 0.00 0.00 0.00 0.00 0.00 0.00 0.00 0.00 0.00 0.01 0.02 0.00 0.03 0.10 0.14 0.32 0.15 0.04 0.02 0.00 0.01 0.01 0.00 0.18 0.00 0.00 0.00 0.00 0.00 0.02 0.03 0.03 0.04 0.01 0.01 0.00 0.01 0.00 0.00 0.00 0.00 0.01 0.01 0.02 0.23 0.46 0.52 0.28 0.17 0.26 0.09 0.15 0.20 0.25 0.15 0.17 0.40 0.36 0.49 0.63 0.70 1.21 0.99 1.36 1.28 2.27 2.21 1.22 0.21 0.09 0.04 0.06 0.10 0.08 0.05
0.00 0.03 0.00 0.02 0.03 0.01 0.01 0.00 0.00 0.00 0.00 0.00 0.00 0.00 0.00 0.00 0.00 0.00 0.00 0.00 0.00 0.01 0.05 0.06 0.07 0.27 0.10 0.20 0.24 0.07 0.00 0.00 0.01 0.00 0.26 0.06 0.00 0.00 0.00 0.00 0.01 0.01 0.06 0.20 0.03 0.04 0.02 0.02 0.04 0.01 0.00 0.01 0.01 0.02 0.00 0.01 0.04 0.15 0.24 0.26 0.36 0.11 0.08 0.14 0.16 0.29 0.10 0.14 0.32 0.45 0.52 0.68 1.03 0.91 1.42 1.62 2.60 1.85 1.52 0.40 0.22 0.17 0.03 0.04 0.03 0.03
0.00 0.02 0.00 0.02 0.01 0.02 0.00 0.01 0.01 0.01 0.00 0.00 0.00 0.00 0.00 0.00 0.00 0.02 0.00 0.02 0.00 0.01 0.01 0.07 0.04 0.13 0.09 0.06 0.04 0.02 0.01 0.01 0.00 0.04 0.06 0.65 0.01 0.00 0.00 0.00 0.00 0.01 0.01 0.07 0.48 0.14 0.10 0.03 0.12 0.28 0.11 0.02 0.01 0.00 0.00 0.00 0.01 0.07 0.06 0.04 0.21 0.23 0.14 0.06 0.29 0.42 0.22 0.25 0.26 0.44 0.47 0.26 1.29 1.37 1.03 1.94 3.73 3.22 1.63 0.72 0.25 0.05 0.07 0.05 0.03 0.08
0.06 0.10 0.02 0.01 0.01 0.01 0.02 0.05 0.09 0.02 0.05 0.02 0.00 0.00 0.00 0.00 0.00 0.00 0.03 0.03 0.03 0.01 0.01 0.01 0.19 0.03 0.01 0.01 0.08 0.06 0.03 0.04 0.09 0.02 0.06 0.48 0.26 0.01 0.01 0.01 0.02 0.00 0.10 0.15 0.04 0.46 0.48 0.15 0.26 0.10 0.10 0.27 0.17 0.23 0.25 0.20 0.13 0.01 0.04 0.10 0.03 0.04 0.38 0.24 0.20 0.21 0.23 0.33 0.31 0.57 0.50 1.24 1.43 1.11 0.87 1.47 3.23 2.30 1.57 1.26 0.82 0.34 0.23 0.10 0.11 0.21
0.06 0.12 0.06 0.04 0.06 0.04 0.02 0.09 0.14 0.11 0.06 0.00 0.00 0.00 0.00 0.02 0.00 0.01 0.03 0.05 0.02 0.02 0.12 0.04 0.03 0.05 0.01 0.02 0.03 0.02 0.02 0.07 0.04 0.01 0.03 0.14 0.52 0.12 0.00 0.00 0.00 0.07 0.08 0.59 0.27 0.44 0.14 0.16 0.07 0.27 0.55 0.39 1.97 0.90 1.14 0.82 0.39 0.16 0.17 0.20 0.45 0.62 0.55 0.87 0.82 0.69 0.45 0.69 1.00 1.34 1.39 1.23 0.97 0.67 1.57 2.60 2.81 1.94 1.66 1.36 0.99 1.26 0.70 0.38 0.23 0.11
0.07 0.04 0.06 0.13 0.04 0.05 0.05 0.27 0.17 0.09 0.01 0.02 0.03 0.03 0.00 0.00 0.02 0.01 0.04 0.05 0.01 0.03 0.04 0.04 0.09 0.02 0.09 0.09 0.09 0.02 0.00 0.00 0.02 0.02 0.01 0.01 0.60 0.22 0.08 0.00 0.00 0.00 0.04 0.04 0.51 0.63 0.79 0.40 0.23 0.16 0.27 0.42 0.52 0.49 0.18 0.40 0.43 0.66 0.61 0.70 0.98 0.81 0.75 1.09 1.38 1.05 1.01 0.82 1.01 0.97 1.01 0.90 1.04 1.29 2.89 2.94 2.44 1.70 1.55 1.46 0.99 0.57 0.62 0.83 0.52 0.22
0.10 0.08 0.13 0.15 0.10 0.06 0.09 0.17 0.35 0.13 0.06 0.06 0.03 0.01 0.00 0.00 0.02 0.03 0.07 0.06 0.03 0.03 0.01 0.08 0.04 0.02 0.05 0.03 0.01 0.05 0.03 0.00 0.01 0.02 0.01 0.01 0.07 0.82 0.37 0.06 0.01 0.01 0.00 0.00 0.01 0.18 0.13 0.46 0.55 0.48 0.47 0.12 0.15 0.48 0.29 0.29 0.34 0.43 0.32 0.38 0.27 0.29 0.52 0.73 0.75 0.69 0.77 0.76 1.09 1.07 1.00 1.03 1.29 1.85 2.53 2.35 2.09 1.58 1.12 0.81 1.07 1.14 0.76 0.80 0.72 0.47
0.11 0.10 0.15 0.14 0.08 0.26 0.07 0.13 0.11 0.35 0.16 0.10 0.07 0.05 0.11 0.19 0.11 0.19 0.33 0.09 0.05 0.07 0.05 0.05 0.02 0.03 0.07 0.02 0.07 0.01 0.01 0.00 0.00 0.01 0.00 0.01 0.00 0.18 0.40 0.39 0.03 0.00 0.00 0.00 0.00 0.00 0.03 0.01 0.13 0.06 0.20 0.78 0.14 0.48 0.48 0.52 0.85 0.83 0.57 0.75 1.26 1.98 2.06 2.03 1.90 1.82 1.55 2.13 1.46 0.85 1.17 1.62 1.84 1.82 1.90 2.05 1.48 1.55 1.63 1.54 1.15 0.96 0.96 0.61 0.90 1.33
0.09 0.29 0.15 0.09 0.32 0.07 0.21 0.23 0.60 0.55 0.54 0.25 0.57 0.23 0.06 0.05 0.16 0.40 0.14 0.28 0.07 0.05 0.02 0.05 0.13 0.06 0.01 0.01 0.02 0.00 0.00 0.01 0.04 0.07 0.02 0.02 0.01 0.01 0.06 0.29 0.12 0.02 0.00 0.00 0.00 0.00 0.01 0.02 0.00 0.02 0.11 0.01 0.07 0.32 0.48 0.82 1.10 1.04 0.69 1.10 1.34 0.83 0.39 0.63 0.60 1.19 1.21 1.56 1.21 0.93 1.08 1.09 0.96 1.03 1.33 1.57 1.70 1.38 1.20 1.28 1.09 1.08 1.12 1.30 1.51 1.02
0.20 0.16 0.21 0.15 0.21 0.20 0.18 0.29 0.39 0.76 0.45 1.03 0.35 0.22 0.05 0.01 0.05 0.11 0.23 0.40 0.30 0.10 0.09 0.05 0.06 0.03 0.03 0.02 0.02 0.00 0.00 0.05 0.15 0.03 0.03 0.03 0.01 0.03 0.03 0.14 0.30 0.06 0.00 0.00 0.00 0.00 0.00 0.00 0.03 0.02 0.01 0.00 0.03 0.07 0.09 0.38 0.91 0.58 0.30 0.27 0.39 0.42 0.47 0.62 1.00 0.74 1.22 1.37 0.90 1.28 1.29 1.18 0.94 0.79 0.91 1.23 1.29 1.25 1.32 1.35 1.28 1.12 1.37 1.05 0.88 0.80
0.61 0.49 0.61 0.46 0.23 0.12 0.15 0.28 0.44 0.39 1.00 0.55 0.32 0.20 0.08 0.02 0.05 0.34 0.27 0.50 0.47 0.10 0.06 0.08 0.07 0.05 0.04 0.02 0.01 0.01 0.01 0.07 0.06 0.08 0.05 0.08 0.10 0.01 0.05 0.05 0.09 0.18 0.09 0.01 0.00 0.00 0.00 0.00 0.00 0.06 0.02 0.02 0.03 0.01 0.14 0.07 0.03 0.18 0.11 0.15 0.57 0.29 0.33 0.42 0.74 0.68 0.55 0.77 1.31 1.13 1.83 1.19 0.84 0.90 0.88 1.29 1.44 1.76 1.93 2.03 2.00 1.64 1.19 0.86 0.77 0.89
0.46 0.49 0.53 0.44 0.21 0.27 0.21 0.16 0.13 0.36 0.49 0.56 0.45 0.12 0.04 0.22 0.30 0.22 0.43 2.35 0.30 0.22 0.13 0.13 0.14 0.10 0.07 0.04 0.03 0.07 0.13 0.22 0.18 0.11 0.10 0.06 0.05 0.05 0.01 0.03 0.04 0.12 0.13 0.04 0.01 0.00 0.01 0.00 0.00 0.00 0.04 0.09 0.09 0.02 0.01 0.02 0.03 0.03 0.05 0.08 0.10 0.31 0.25 0.43 1.02 1.13 1.51 1.35 0.83 0.93 2.03 1.48 1.00 1.26 1.45 1.48 1.77 1.84 1.81 1.98 1.80 1.38 1.17 0.95 1.04 1.17
0.47 0.55 0.54 0.50 0.40 0.52 0.51 0.17 0.28 0.69 0.97 0.77 0.57 0.35 0.63 0.33 0.37 0.85 0.89 0.76 0.65 0.32 0.22 0.21 0.18 0.11 0.09 0.09 0.09 0.15 0.19 0.15 0.18 0.27 0.11 0.10 0.10 0.06 0.03 0.02 0.04 0.03 0.05 0.08 0.02 0.01 0.00 0.00 0.00 0.00 0.00 0.00 0.02 0.03 0.03 0.00 0.01 0.04 0.03 0.09 0.09 0.07 0.11 0.22 0.71 0.55 0.23 1.02 1.87 2.11 2.67 1.99 2.11 1.21 1.03 1.03 1.08 0.84 0.73 1.32 1.55 1.12 0.93 1.06 0.63 0.56
1.14 0.52 0.59 0.50 0.51 0.42 0.61 0.49 0.24 0.58 1.41 0.39 0.88 1.11 1.29 1.33 1.89 0.92 0.48 0.70 0.48 0.46 0.30 0.22 0.23 0.19 0.11 0.13 0.15 0.22 0.19 0.15 0.19 0.19 0.14 0.12 0.12 0.08 0.08 0.04 0.02 0.08 0.10 0.08 0.17 0.07 0.02 0.01 0.00 0.00 0.00 0.00 0.00 0.04 0.06 0.04 0.01 0.00 0.02 0.01 0.03 0.05 0.14 0.15 0.13 0.16 0.12 0.73 1.00 1.89 2.33 1.94 1.38 0.91 0.58 0.49 0.48 0.31 0.48 0.74 0.67 0.63 0.34 0.34 0.50 0.67
1.78 0.83 0.68 0.59 0.65 0.78 0.46 0.75 0.58 0.90 0.87 0.61 0.84 1.65 1.66 1.66 1.18 0.89 0.64 0.65 0.80 0.44 0.33 0.35 0.25 0.24 0.18 0.17 0.16 0.18 0.17 0.18 0.16 0.13 0.12 0.14 0.08 0.07 0.09 0.10 0.04 0.02 0.07 0.08 0.09 0.20 0.02 0.04 0.01 0.00 0.00 0.00 0.00 0.00 0.00 0.06 0.08 0.02 0.02 0.03 0.01 0.05 0.05 0.17 0.46 0.66 0.65 0.40 0.61 0.69 1.37 1.39 1.12 1.17 1.34 0.94 0.65 0.65 0.74 0.82 0.73 0.46 0.74 0.40 0.55 0.50
1.66 1.59 1.68 1.27 1.17 0.67 1.18 1.03 1.08 0.41 0.77 0.91 1.17 0.96 1.03 0.88 0.67 1.17 0.59 1.02 1.47 0.64 0.53 0.42 0.49 0.26 0.28 0.21 0.23 0.19 0.19 0.20 0.21 0.22 0.17 0.20 0.16 0.12 0.09 0.11 0.11 0.05 0.03 0.04 0.12 0.13 0.07 0.03 0.01 0.01 0.01 0.01 0.01 0.01 0.00 0.00 0.05 0.12 0.05 0.29 0.32 0.43 0.49 0.56 0.32 0.12 0.10 0.17 0.25 0.31 0.73 0.61 0.76 0.98 1.05 0.97 1.09 1.43 1.21 1.17 1.06 0.57 0.50 0.55 0.57 0.55
1.11 0.90 0.99 0.74 0.93 0.69 0.40 0.81 0.68 0.68 0.46 0.81 0.78 1.21 1.12 1.21 0.49 0.54 0.85 1.07 1.08 1.12 0.67 0.67 0.31 0.33 0.28 0.45 0.44 0.36 0.30 0.21 0.18 0.18 0.19 0.21 0.19 0.13 0.11 0.15 0.12 0.10 0.04 0.03 0.01 0.07 0.05 0.09 0.03 0.16 0.19 0.17 0.14 0.27 0.10 0.06 0.06 0.02 0.03 0.09 0.03 0.11 0.08 0.19 0.13 0.23 0.44 0.52 0.47 0.42 0.20 0.19 0.38 0.38 0.44 0.58 0.50 0.49 0.49 0.55 0.55 0.76 0.46 0.65 0.87 0.96
0.84 0.72 0.75 0.79 1.51 0.51 0.97 0.82 0.97 0.84 0.57 0.56 0.81 1.24 1.65 1.17 1.22 1.06 1.20 1.14 1.11 0.86 0.72 0.44 0.35 0.35 0.43 0.59 1.08 0.95 0.77 0.65 0.44 0.33 0.25 0.17 0.23 0.24 0.15 0.19 0.16 0.16 0.10 0.06 0.04 0.03 0.04 0.13 0.23 0.34 0.50 0.70 0.58 0.46 0.49 0.29 0.30 0.21 0.10 0.11 0.12 0.33 0.37 0.28 0.10 0.59 0.40 0.12 0.16 0.20 0.25 0.16 0.17 0.11 0.09 0.20 0.37 0.85 1.01 1.30 1.07 0.97 1.08 0.77 0.87 0.70
1.42 0.76 0.83 0.72 0.97 0.58 0.87 1.09 0.76 0.74 0.71 0.57 0.79 1.21 1.20 2.20 1.80 1.43 1.17 1.16 1.45 1.53 0.84 0.71 0.42 0.35 0.15 0.30 0.94 1.23 0.65 0.53 0.75 0.62 0.61 0.75 0.38 0.27 0.25 0.28 0.42 0.38 0.32 0.28 0.38 0.40 0.47 0.28 0.61 0.74 0.59 0.51 0.58 0.67 0.58 0.51 0.45 0.37 0.38 0.46 0.69 0.55 0.52 0.74 0.39 0.38 0.39 0.42 0.42 0.15 0.40 0.38 0.32 0.48 0.55 0.78 0.79 0.79 0.66 0.61 0.59 0.66 0.45 0.45 0.36 0.31
1.08 0.94 1.18 0.91 0.76 0.61 0.64 1.08 1.11 1.05 1.15 1.20 1.08 1.06 1.00 1.49 1.97 1.74 1.37 1.00 0.98 1.63 1.21 0.75 0.73 0.54 0.27 0.55 0.39 0.65 1.15 0.28 0.43 0.84 0.90 0.73 0.77 0.78 0.83 0.53 0.30 0.29 0.23 0.32 0.13 0.24 0.37 0.31 0.58 0.85 1.00 1.03 0.73 0.65 0.82 0.80 0.97 0.85 1.17 1.39 1.16 1.10 1.21 1.36 1.13 1.07 1.17 1.24 1.40 1.44 1.19 1.28 1.09 0.91 0.49 0.34 0.44 0.39 0.54 0.46 0.46 0.42 0.41 0.17 0.19 0.12
0.70 1.02 0.97 0.94 0.92 0.82 0.95 1.02 0.99 1.23 1.06 0.85 0.68 1.31 1.22 1.03 1.57 1.76 1.78 1.22 1.04 1.36 1.48 1.12 0.51 0.55 0.37 0.37 0.37 0.48 0.64 0.40 0.52 0.64 1.07 1.25 1.41 0.73 0.93 1.00 0.92 0.93 0.58 0.39 0.38 0.47 0.35 0.38 0.30 0.21 0.34 0.42 0.56 1.03 0.90 0.88 1.35 1.55 2.04 1.75 1.82 1.72 0.81 1.67 1.57 1.10 1.14 1.15 1.12 1.10 1.01 0.98 0.66 0.53 0.48 0.32 0.24 0.31 0.12 0.06 0.04 0.08 0.09 0.29 0.12 0.20
1.75 1.42 1.15 1.58 1.16 0.85 0.86 0.83 1.23 1.25 0.93 1.01 0.61 0.60 1.04 1.17 1.32 1.86 1.77 1.77 0.88 0.60 1.34 1.44 1.45 0.70 0.43 0.44 0.50 0.56 0.36 0.54 0.54 0.56 0.71 0.64 0.70 1.28 1.63 1.25 1.35 0.72 0.73 0.75 0.47 0.46 0.53 0.48 0.48 0.40 0.18 0.51 0.83 0.50 1.03 1.13 1.49 2.05 1.89 1.94 2.27 1.85 1.84 1.41 1.38 1.02 0.79 1.09 0.86 0.67 0.61 0.72 0.83 0.83 0.56 0.46 0.17 0.12 0.24 0.09 0.03 0.58 1.06 1.47 1.11 0.67